When you browse on this site, cookies collect data to enhance your experience and personalize the content and advertising you see.
Visit our Privacy Policy to learn more. By continuing to use the site, you agree to this use of cookies and data.
  • în România
  • Lista ţărilor
  • Pe 7 zile
  • Temperatura apei
  • Meteo pe hartă
  • Widget-uri
  • user-avatar
    Intrare

    Meteo pe oră la Porto-Novo

    Astăzi, 26 Ianuarie, Duminică

    Timp Temperatura Precipitaţii Vânt Presiune Umiditate
    00:00 +25°C° 0 mm 1 m/s 757 mmHg 49%
    01:00 +24°C° 0 mm 1 m/s 757 mmHg 47%
    02:00 +23°C° 0 mm 1 m/s 757 mmHg 46%
    03:00 +23°C° 0 mm 1 m/s 757 mmHg 44%
    04:00 +23°C° 0 mm 2 m/s 757 mmHg 41%
    05:00 +21°C° 0 mm 2 m/s 758 mmHg 39%
    06:00 +21°C° 0 mm 2 m/s 758 mmHg 44%
    07:00 +25°C° 0 mm 2 m/s 759 mmHg 35%
    08:00 +27°C° 0 mm 2 m/s 759 mmHg 26%
    09:00 +30°C° 0 mm 2 m/s 759 mmHg 17%
    10:00 +34°C° 0 mm 2 m/s 759 mmHg 14%
    11:00 +36°C° 0 mm 2 m/s 758 mmHg 12%
    12:00 +39°C° 0 mm 1 m/s 758 mmHg 9%
    13:00 +38°C° 0 mm 2 m/s 757 mmHg 12%
    14:00 +38°C° 0 mm 3 m/s 756 mmHg 14%
    15:00 +38°C° 0 mm 3 m/s 755 mmHg 16%
    16:00 +35°C° 0 mm 3 m/s 756 mmHg 25%
    17:00 +31°C° 0 mm 3 m/s 756 mmHg 35%
    18:00 +29°C° 0 mm 3 m/s 756 mmHg 44%
    19:00 +28°C° 0 mm 3 m/s 756 mmHg 49%
    20:00 +27°C° 0 mm 3 m/s 757 mmHg 55%
    21:00 +27°C° 0 mm 3 m/s 758 mmHg 60%
    22:00 +26°C° 0 mm 3 m/s 758 mmHg 63%
    23:00 +26°C° 0 mm 2 m/s 757 mmHg 65%

    Mâine, 27 Ianuarie, Luni

    Timp Temperatura Precipitaţii Vânt Presiune Umiditate
    00:00 +25°C° 0 mm 2 m/s 757 mmHg 68%
    01:00 +25°C° 0 mm 2 m/s 757 mmHg 69%
    02:00 +24°C° 0 mm 2 m/s 757 mmHg 69%
    03:00 +23°C° 0 mm 2 m/s 757 mmHg 70%
    04:00 +23°C° 0 mm 2 m/s 757 mmHg 70%
    05:00 +23°C° 0 mm 2 m/s 757 mmHg 70%
    06:00 +22°C° 0 mm 1 m/s 757 mmHg 70%
    07:00 +25°C° 0 mm 1 m/s 758 mmHg 61%
    08:00 +28°C° 0 mm 1 m/s 759 mmHg 52%
    09:00 +31°C° 0 mm 2 m/s 759 mmHg 43%
    10:00 +34°C° 0 mm 1 m/s 759 mmHg 35%
    11:00 +37°C° 0 mm 1 m/s 758 mmHg 27%
    12:00 +41°C° 0 mm 1 m/s 757 mmHg 19%
    13:00 +39°C° 0 mm 2 m/s 757 mmHg 24%
    14:00 +38°C° 0 mm 3 m/s 756 mmHg 28%
    15:00 +37°C° 0 mm 4 m/s 755 mmHg 33%
    16:00 +34°C° 0 mm 4 m/s 755 mmHg 44%
    17:00 +32°C° 0 mm 4 m/s 755 mmHg 55%
    18:00 +29°C° 0 mm 5 m/s 755 mmHg 66%
    19:00 +28°C° 0 mm 4 m/s 756 mmHg 69%
    20:00 +28°C° 0 mm 4 m/s 756 mmHg 72%
    21:00 +27°C° 0 mm 4 m/s 757 mmHg 75%
    22:00 +27°C° 0 mm 4 m/s 757 mmHg 77%
    23:00 +27°C° 0 mm 3 m/s 757 mmHg 79%

    Poimâine, 28 Ianuarie, Marţi

    Timp Temperatura Precipitaţii Vânt Presiune Umiditate
    00:00 +26°C° 0 mm 3 m/s 757 mmHg 80%
    01:00 +26°C° 0 mm 3 m/s 757 mmHg 82%
    02:00 +26°C° 0 mm 2 m/s 757 mmHg 84%
    03:00 +25°C° 0 mm 2 m/s 757 mmHg 86%
    04:00 +25°C° 0 mm 2 m/s 757 mmHg 87%
    05:00 +25°C° 0 mm 2 m/s 757 mmHg 88%
    06:00 +25°C° 0 mm 1 m/s 758 mmHg 88%
    07:00 +27°C° 0 mm 2 m/s 758 mmHg 78%
    08:00 +30°C° 0 mm 2 m/s 759 mmHg 67%
    09:00 +32°C° 0 mm 2 m/s 759 mmHg 57%
    10:00 +34°C° 0 mm 2 m/s 759 mmHg 51%
    11:00 +36°C° 0 mm 3 m/s 758 mmHg 46%
    12:00 +37°C° 0 mm 3 m/s 758 mmHg 40%
    13:00 +36°C° 0 mm 4 m/s 757 mmHg 42%
    14:00 +36°C° 0 mm 4 m/s 756 mmHg 44%
    15:00 +35°C° 0 mm 4 m/s 755 mmHg 46%
    16:00 +34°C° 0 mm 4 m/s 755 mmHg 54%
    17:00 +32°C° 0 mm 4 m/s 755 mmHg 62%
    18:00 +29°C° 0 mm 4 m/s 755 mmHg 69%
    19:00 +29°C° 0 mm 4 m/s 756 mmHg 73%
    20:00 +28°C° 0 mm 4 m/s 757 mmHg 76%
    21:00 +28°C° 0 mm 4 m/s 757 mmHg 79%
    22:00 +28°C° 0 mm 4 m/s 757 mmHg 80%
    23:00 +27°C° 0 mm 3 m/s 757 mmHg 81%

    29 Ianuarie, Miercuri

    Timp Temperatura Precipitaţii Vânt Presiune Umiditate
    00:00 +27°C° 0 mm 3 m/s 757 mmHg 83%
    01:00 +27°C° 0 mm 3 m/s 756 mmHg 84%
    02:00 +26°C° 0 mm 2 m/s 756 mmHg 86%
    03:00 +26°C° 0 mm 2 m/s 756 mmHg 88%
    04:00 +26°C° 0 mm 2 m/s 756 mmHg 90%
    05:00 +25°C° 0 mm 2 m/s 757 mmHg 91%
    06:00 +25°C° 0 mm 1 m/s 757 mmHg 92%
    07:00 +28°C° 0 mm 1 m/s 757 mmHg 80%
    08:00 +30°C° 0 mm 1 m/s 758 mmHg 68%
    09:00 +33°C° 0 mm 1 m/s 759 mmHg 56%
    10:00 +35°C° 0 mm 1 m/s 758 mmHg 50%
    11:00 +36°C° 0 mm 1 m/s 758 mmHg 44%
    12:00 +39°C° 0 mm 1 m/s 757 mmHg 38%
    13:00 +38°C° 0 mm 2 m/s 756 mmHg 42%
    14:00 +37°C° 0 mm 4 m/s 756 mmHg 46%
    15:00 +36°C° 0 mm 5 m/s 755 mmHg 50%
    16:00 +34°C° 0 mm 5 m/s 755 mmHg 58%
    17:00 +32°C° 0 mm 4 m/s 755 mmHg 65%
    18:00 +30°C° 0 mm 4 m/s 755 mmHg 73%
    19:00 +29°C° 0 mm 4 m/s 756 mmHg 77%
    20:00 +28°C° 0 mm 4 m/s 756 mmHg 81%
    21:00 +28°C° 0 mm 3 m/s 757 mmHg 85%
    22:00 +27°C° 0 mm 3 m/s 757 mmHg 87%
    23:00 +27°C° 0 mm 2 m/s 757 mmHg 89%

    30 Ianuarie, Joi

    Timp Temperatura Precipitaţii Vânt Presiune Umiditate
    00:00 +26°C° 0 mm 2 m/s 757 mmHg 91%
    01:00 +26°C° 0 mm 2 m/s 756 mmHg 91%
    02:00 +26°C° 0 mm 2 m/s 756 mmHg 92%
    03:00 +25°C° 0 mm 2 m/s 756 mmHg 93%
    04:00 +25°C° 0 mm 2 m/s 756 mmHg 93%
    05:00 +25°C° 0 mm 1 m/s 757 mmHg 93%
    06:00 +25°C° 0 mm 1 m/s 757 mmHg 93%
    07:00 +27°C° 0 mm 1 m/s 758 mmHg 82%
    08:00 +30°C° 0 mm 1 m/s 758 mmHg 71%
    09:00 +31°C° 0 mm 0 m/s 759 mmHg 60%
    10:00 +34°C° 0 mm 1 m/s 758 mmHg 52%
    11:00 +37°C° 0 mm 2 m/s 758 mmHg 45%
    12:00 +38°C° 0 mm 3 m/s 757 mmHg 37%
    13:00 +37°C° 0 mm 4 m/s 756 mmHg 42%
    14:00 +36°C° 0 mm 4 m/s 756 mmHg 47%
    15:00 +35°C° 0 mm 5 m/s 755 mmHg 52%
    16:00 +34°C° 0 mm 5 m/s 755 mmHg 59%
    17:00 +32°C° 0 mm 5 m/s 755 mmHg 67%
    18:00 +30°C° 0 mm 5 m/s 756 mmHg 75%
    19:00 +29°C° 0 mm 5 m/s 756 mmHg 77%
    20:00 +29°C° 0 mm 5 m/s 757 mmHg 80%
    21:00 +28°C° 0 mm 5 m/s 757 mmHg 83%
    22:00 +28°C° 0 mm 4 m/s 757 mmHg 85%
    23:00 +27°C° 0 mm 4 m/s 758 mmHg 88%

    31 Ianuarie, Vineri

    Timp Temperatura Precipitaţii Vânt Presiune Umiditate
    00:00 +27°C° 0 mm 3 m/s 758 mmHg 91%
    01:00 +27°C° 0 mm 3 m/s 757 mmHg 91%
    02:00 +27°C° 0 mm 3 m/s 757 mmHg 92%
    03:00 +26°C° 0 mm 3 m/s 757 mmHg 92%
    04:00 +27°C° 0 mm 2 m/s 757 mmHg 90%
    05:00 +27°C° 0 mm 2 m/s 757 mmHg 89%
    06:00 +27°C° 0 mm 1 m/s 758 mmHg 87%
    07:00 +28°C° 0 mm 1 m/s 758 mmHg 80%
    08:00 +30°C° 0 mm 1 m/s 759 mmHg 73%
    09:00 +31°C° 0 mm 2 m/s 760 mmHg 66%
    10:00 +32°C° 0 mm 2 m/s 759 mmHg 61%
    11:00 +34°C° 0 mm 2 m/s 759 mmHg 57%
    12:00 +35°C° 0 mm 2 m/s 758 mmHg 53%
    13:00 +35°C° 0 mm 3 m/s 758 mmHg 52%
    14:00 +35°C° 0 mm 4 m/s 757 mmHg 52%
    15:00 +35°C° 0 mm 5 m/s 756 mmHg 51%
    16:00 +34°C° 0 mm 5 m/s 756 mmHg 58%
    17:00 +32°C° 0 mm 4 m/s 756 mmHg 64%
    18:00 +30°C° 0 mm 4 m/s 756 mmHg 70%
    19:00 +29°C° 0 mm 4 m/s 757 mmHg 73%
    20:00 +29°C° 0 mm 4 m/s 757 mmHg 76%
    21:00 +29°C° 0 mm 4 m/s 758 mmHg 79%
    22:00 +28°C° 0 mm 4 m/s 758 mmHg 82%
    23:00 +28°C° 0 mm 3 m/s 758 mmHg 84%
    Arată mai mult